Location: Moore
(46.9751°N, 109.6952°W)
Time: 10:34:22
(UTC+00:00)

X-37B - Visible Passes

Search period start: 26 January 2022 00:00
Search period end: 05 February 2022 00:00
Orbit: 334 x 337 km, 45.0° (Epoch: 11 January)

Date Brightness Start Highest point End Pass type
(mag) Time Alt. Az. Time Alt. Az. Time Alt. Az.
27 Jan 3.3 02:27:02 10° SSW 02:27:26 12° SSW 02:27:26 12° SSW visible
28 Jan 2.8 01:13:35 10° S 01:14:39 12° SSE 01:15:43 10° SE visible
28 Jan 3.6 02:46:56 10° SW 02:47:10 12° SW 02:47:10 12° SW visible
29 Jan 2.0 01:32:29 10° SSW 01:34:47 22° SSE 01:35:38 19° SE visible
30 Jan 1.1 01:52:22 10° SW 01:55:03 38° SSE 01:55:16 37° SSE visible
31 Jan 1.2 02:12:36 10° WSW 02:14:53 45° SW 02:14:53 45° SW visible
01 Feb 1.3 00:57:49 10° SW 01:00:28 37° SSE 01:03:08 10° E visible
01 Feb 2.5 02:32:58 10° W 02:34:29 27° WSW 02:34:29 27° WSW visible
02 Feb 0.7 01:18:02 10° WSW 01:20:48 53° S 01:22:51 16° E visible
02 Feb 3.5 02:53:23 10° W 02:54:05 16° W 02:54:05 16° W visible
03 Feb 0.6 01:38:24 10° W 01:41:12 58° S 01:42:28 27° ESE visible
04 Feb 1.0 01:58:49 10° W 02:01:33 46° SSW 02:02:08 39° SSE visible
